Temperature
9 8 8 8 8 8 8 8 8 8 8 8 8 8 9 9 9 10 10 10 10 10 10 10 10 10 10 9 9 9 9 9 9 9 9 9 9 9 9 9 9 9 9
8 8 8 8 8 8 8 8 7 7 7 7 8 8 8 8 9 9 9 10 10 10 10 10 10 10 10 9 9 8 8 8 8 8 8 9 9 9 9 9 9 9 9
8 8 8 8 8 8 7 7 7 7 7 7 7 8 8 8 8 9 9 9 10 10 10 10 10 10 10 10 9 9 8 8 7 7 7 8 8 8 8 8 8 8 8
8 8 8 8 8 7 7 7 7 7 7 7 7 7 8 8 8 8 9 9 9 10 10 10 10 10 10 9 9 9 8 8 7 7 7 7 7 7 7 7 7 7 7
8 8 8 8 8 7 7 7 7 7 7 7 7 7 7 7 8 8 8 9 9 9 9 9 9 9 9 9 9 8 8 8 7 7 7 7 7 6 6 6 6 6 6
8 8 8 8 8 8 7 7 7 7 7 7 6 7 7 7 7 8 8 9 9 9 9 9 9 9 9 9 9 8 8 7 7 7 6 6 6 6 6 6 6 6 6
9 9 8 8 8 8 8 7 7 7 7 6 6 6 6 7 8 8 8 8 8 8 8 8 8 8 8 8 8 8 7 7 6 6 6 6 6 6 6 6 5 5 5
9 9 8 8 8 8 8 7 7 6 6 6 5 4 4 5 7 7 7 7 7 7 7 7 7 7 7 7 7 7 7 7 6 6 6 5 5 5 5 5 5 5 5
9 8 8 8 8 7 7 7 7 6 6 6 5 4 4 4 5 5 6 6 6 6 6 6 6 6 6 6 6 6 6 6 6 5 5 5 5 5 5 5 5 5 5
8 8 8 7 7 7 7 7 6 6 5 5 5 5 4 4 3 3 4 5 5 5 5 5 5 5 5 5 5 5 5 5 5 5 4 4 4 5 5 5 5 5 5
7 7 7 7 7 7 6 6 6 6 5 5 5 4 4 3 3 2 2 3 4 4 4 4 4 4 4 4 4 4 4 4 4 4 4 3 3 4 4 5 5 5 5
7 7 6 6 6 6 6 6 5 5 5 5 4 4 3 3 3 2 2 2 2 2 2 2 3 3 3 3 3 3 3 3 3 3 3 2 2 2 3 4 4 5 5
6 6 6 6 6 6 5 5 5 4 4 4 3 3 3 2 2 2 1 1 1 1 1 1 2 2 2 2 2 3 3 3 2 2 2 2 1 2 2 2 3 3 4
6 6 5 5 5 5 5 4 4 4 3 3 2 2 2 2 1 1 1 0 0 0 0 0 1 1 1 1 2 2 2 2 2 1 1 1 1 1 1 1 2 2 3
5 5 5 5 5 4 4 3 3 3 2 2 2 1 1 1 1 1 0 0 -0 -1 -0 -0 -0 -0 -0 0 0 1 1 1 1 1 0 0 0 0 0 0 1 1 1
5 5 4 4 4 4 3 3 2 2 1 1 1 1 0 0 0 -0 -0 -1 -1 -1 -1 -1 -1 -1 -1 -1 -1 -1 -1 -0 -0 -0 -0 -1 -1 -1 -1 -0 -0 -0 0
4 4 4 4 3 3 3 2 2 1 1 0 0 -0 -0 -1 -1 -1 -1 -1 -2 -2 -2 -2 -2 -2 -2 -2 -2 -2 -1 -1 -1 -1 -1 -1 -1 -1 -1 -1 -1 -1 -0
4 4 3 3 2 2 2 1 1 0 -0 -1 -1 -1 -1 -2 -2 -2 -2 -2 -2 -2 -3 -3 -2 -2 -2 -2 -2 -2 -2 -2 -2 -2 -2 -2 -2 -2 -2 -2 -1 -1 -1
3 3 3 2 2 1 1 0 -0 -1 -1 -1 -2 -2 -2 -3 -3 -3 -3 -3 -3 -3 -3 -3 -3 -3 -3 -3 -3 -3 -3 -2 -2 -2 -3 -2 -2 -2 -2 -2 -2 -2 -2
3 2 2 1 1 1 0 -0 -1 -1 -2 -2 -2 -3 -3 -3 -4 -4 -4 -4 -4 -3 -3 -3 -3 -3 -3 -3 -3 -3 -3 -3 -3 -3 -3 -3 -3 -3 -3 -3 -2 -2 -2
2 1 1 1 0 -0 -1 -1 -2 -2 -2 -3 -3 -3 -4 -4 -4 -4 -4 -4 -3 -3 -3 -3 -3 -3 -3 -3 -3 -3 -4 -3 -3 -3 -3 -3 -3 -3 -3 -3 -3 -3 -3
2 1 0 -0 -0 -1 -1 -2 -2 -3 -3 -3 -3 -4 -4 -4 -4 -4 -4 -4 -4 -3 -3 -4 -4 -4 -4 -4 -4 -4 -4 -4 -4 -3 -3 -3 -3 -3 -3 -3 -3 -3 -3
1 0 -0 -1 -1 -1 -2 -2 -3 -3 -4 -4 -4 -4 -5 -5 -5 -5 -5 -4 -4 -4 -4 -4 -4 -4 -4 -4 -4 -4 -4 -4 -4 -4 -4 -4 -4 -4 -3 -3 -3 -3 -3
-0 -1 -1 -2 -2 -2 -3 -3 -3 -4 -4 -4 -4 -5 -5 -5 -5 -5 -5 -5 -4 -4 -4 -4 -4 -4 -4 -4 -4 -4 -4 -4 -4 -4 -4 -4 -4 -4 -4 -4 -4 -4 -4
-1 -1 -2 -2 -3 -3 -3 -4 -4 -4 -4 -4 -4 -5 -5 -5 -5 -5 -5 -5 -4 -4 -4 -5 -4 -4 -4 -4 -4 -4 -4 -4 -4 -4 -4 -5 -4 -4 -4 -4 -4 -4 -4
-2 -2 -3 -3 -3 -3 -4 -4 -4 -5 -5 -5 -5 -5 -5 -5 -5 -5 -5 -5 -5 -5 -5 -5 -5 -5 -4 -4 -4 -4 -4 -5 -5 -5 -4 -5 -5 -5 -5 -4 -4 -4 -4
Wind_Speed
6 6 7 8 9 9 9 8 9 10 10 11 12 12 12 14 15 16 17 19 20 21 21 22 22 22 22 22 21 21 20 20 19 18 18 17 16 15 14 13 12 11 10
7 6 6 6 7 8 8 8 8 8 8 8 8 11 12 15 16 18 19 21 23 24 24 25 25 26 25 25 25 24 24 23 23 22 22 21 20 19 18 17 16 15 14
8 7 5 5 7 9 10 9 9 8 6 6 6 9 12 14 16 18 20 20 22 24 26 27 28 28 28 28 28 28 27 27 26 26 25 24 24 23 22 21 19 18 17
10 8 5 5 9 9 8 5 4 5 5 6 6 7 8 11 15 18 20 21 21 22 25 28 29 30 31 31 31 31 30 30 29 29 28 28 27 26 25 24 23 22 21
9 8 6 7 9 7 6 4 5 5 6 7 7 7 7 7 9 14 15 19 22 23 24 27 30 31 31 32 33 33 33 32 32 32 32 31 30 30 29 28 27 25 24
8 8 6 7 8 5 5 5 6 6 6 7 9 10 8 9 8 10 12 17 20 23 24 25 25 27 30 32 33 34 35 35 34 34 34 34 33 33 32 31 30 29 28
7 7 5 6 6 5 6 7 6 7 6 5 6 8 8 11 14 14 12 12 13 20 21 22 23 23 24 29 31 33 34 36 36 36 36 36 36 35 35 34 33 32 31
6 6 5 4 4 5 7 7 7 6 6 5 4 5 6 5 7 11 10 11 12 12 13 19 21 22 23 23 26 30 32 34 36 37 37 37 37 37 37 36 35 35 34
5 6 6 5 5 5 6 7 7 8 7 6 6 6 5 5 5 4 6 7 8 8 8 11 16 20 22 22 24 28 32 33 34 35 36 37 38 38 38 38 38 37 36
5 5 6 6 5 4 6 7 7 6 7 7 6 7 8 7 6 6 4 5 7 7 8 9 9 15 20 21 24 27 31 32 33 34 35 36 37 38 39 39 39 39 38
4 5 6 6 5 5 7 8 8 7 6 7 7 6 8 7 9 10 12 7 7 8 9 10 8 10 17 19 20 25 30 32 33 34 34 34 35 36 38 39 39 39 39
3 5 6 5 6 5 7 7 8 9 8 9 8 7 8 7 7 9 12 11 10 8 9 8 8 8 14 17 22 26 29 31 32 33 33 33 33 34 36 37 38 39 39
4 5 4 4 5 6 7 7 8 9 9 9 10 9 8 10 9 9 13 15 14 10 9 8 8 8 14 17 19 25 28 30 31 31 32 32 32 33 34 35 36 37 38
4 5 5 6 7 8 8 7 7 9 8 9 11 11 9 9 9 9 10 12 17 15 10 10 7 8 10 14 18 22 22 28 29 29 30 30 31 32 33 34 35 36 37
5 5 6 7 7 8 8 8 7 9 9 9 10 10 10 9 8 9 9 9 13 20 19 11 7 6 8 13 18 18 16 24 28 28 29 29 30 31 32 32 33 34 35
6 7 8 8 8 8 8 9 8 9 9 9 8 10 10 9 8 8 8 9 9 14 21 12 7 7 9 12 22 20 16 24 27 28 29 29 30 30 31 31 32 32 33
7 7 8 9 9 9 9 9 9 10 10 10 10 10 11 10 9 8 8 8 9 10 19 17 9 8 9 11 12 14 16 15 17 27 29 29 29 30 30 30 31 31 32
7 8 9 9 10 10 9 10 10 10 10 11 11 10 11 11 12 10 9 10 10 10 14 21 14 9 10 10 11 12 12 14 12 24 29 30 30 30 29 29 29 30 30
8 8 9 9 10 10 10 10 10 10 10 11 11 12 12 12 14 11 12 12 11 13 12 16 18 11 9 10 11 12 13 11 14 20 25 27 28 29 29 29 29 29 29
9 9 9 10 10 11 11 11 11 11 11 11 11 12 13 13 15 15 14 14 13 13 13 15 16 13 11 9 9 10 12 9 11 12 17 20 24 27 27 27 27 27 27
10 10 10 11 10 10 10 11 10 10 11 12 12 13 14 19 23 20 17 13 13 13 13 14 15 14 12 9 10 9 12 10 10 10 10 11 11 10 12 20 24 25 26
9 10 10 11 11 11 18 23 18 11 10 11 12 12 14 17 21 26 28 26 22 16 13 14 14 15 14 11 10 10 11 12 11 6 9 11 9 9 9 8 19 24 25
10 10 10 10 11 13 22 24 24 16 11 11 12 12 14 15 21 14 20 25 23 27 25 18 16 16 15 12 11 13 12 13 13 6 6 10 7 9 8 12 21 23 23
9 9 10 11 11 14 23 25 25 15 11 11 12 13 14 14 15 17 14 14 14 15 18 15 13 14 14 13 13 14 14 13 11 9 8 10 8 8 9 8 19 22 22
9 9 10 11 12 14 22 25 24 11 10 11 12 12 14 13 22 27 18 15 15 14 19 23 24 22 25 25 19 11 10 10 11 8 7 7 7 7 7 7 12 20 21
10 10 10 10 12 12 20 24 24 10 10 10 10 11 19 21 25 27 16 13 16 14 13 14 15 17 15 16 20 11 9 10 9 7 6 6 5 4 5 5 7 7 10
Wind_Direction
192 212 210 214 219 222 218 219 228 243 247 245 242 239 241 245 246 244 245 249 252 252 254 255 255 255 255 255 253 251 249 247 246 246 246 247 247 247 247 247 247 248 249
204 213 220 224 229 235 241 237 239 247 249 247 245 246 247 248 249 249 247 247 250 251 253 255 255 255 254 254 254 252 250 248 246 245 244 244 244 244 244 245 245 244 245
223 224 225 233 236 242 244 244 249 259 262 260 254 253 254 252 250 249 250 247 246 249 251 253 254 255 254 254 254 253 252 250 248 246 245 243 242 242 242 242 242 243 243
227 231 232 238 246 250 248 239 236 252 259 258 257 254 251 250 249 248 249 248 245 245 247 251 253 254 255 254 254 253 252 251 249 247 246 244 243 242 241 240 240 240 241
237 237 239 246 255 255 249 244 244 240 255 262 264 262 255 251 252 253 249 247 244 243 242 248 253 255 256 257 257 256 254 252 251 249 247 245 244 242 241 240 239 239 239
253 249 247 252 260 260 256 250 253 251 250 257 270 271 265 261 257 254 253 251 247 245 244 244 247 252 256 259 259 259 258 256 253 251 250 247 245 244 242 240 239 238 238
266 258 251 251 252 253 255 253 256 262 263 262 276 282 271 256 254 253 250 248 246 245 244 243 244 244 250 256 260 261 261 260 258 255 252 250 248 246 244 242 240 238 238
274 268 258 252 249 252 259 260 257 261 264 250 252 294 302 297 259 251 247 244 244 242 240 243 243 243 243 245 251 258 263 263 262 260 257 253 251 248 246 244 242 240 238
269 266 265 264 264 258 259 259 254 253 260 256 222 226 261 272 307 289 276 264 252 244 242 244 244 245 245 243 245 252 258 262 264 264 262 259 255 251 248 246 244 241 239
260 259 261 265 264 262 264 263 259 252 253 260 255 237 238 242 272 294 276 279 290 277 266 258 251 248 246 244 243 248 255 259 263 265 265 264 260 256 252 249 246 243 241
274 261 254 253 256 258 262 264 266 260 252 251 249 251 257 259 250 263 279 271 266 261 264 261 255 252 249 245 242 246 254 259 263 265 266 266 265 263 259 254 249 246 243
295 284 276 262 260 257 260 261 260 259 256 255 254 249 248 250 252 256 270 276 274 267 264 267 267 261 259 255 250 251 253 258 262 264 266 266 266 266 265 262 257 251 247
300 295 300 290 282 274 270 265 265 262 259 258 257 257 254 255 253 257 269 279 281 279 270 267 266 269 272 266 259 255 255 259 261 264 265 266 266 266 265 264 262 258 253
290 297 302 293 286 284 282 274 272 266 264 259 261 259 259 258 256 255 262 276 285 285 271 263 262 264 274 276 271 264 260 262 264 264 265 267 267 266 264 263 261 260 258
292 297 296 291 286 284 280 278 274 271 269 265 263 262 262 261 258 257 257 256 272 285 285 272 263 263 277 285 285 281 267 266 268 268 268 268 268 266 264 262 260 258 257
297 298 295 292 289 286 284 283 281 277 276 273 270 270 270 269 265 261 260 260 258 271 282 279 264 257 267 276 281 283 277 275 273 272 272 271 270 268 266 263 260 257 256
300 297 294 293 292 291 289 286 284 285 284 284 283 283 282 282 281 275 271 268 266 266 277 283 272 265 262 266 274 274 276 272 269 271 272 272 271 269 267 264 261 258 256
296 294 293 292 291 292 290 290 291 292 291 291 290 290 290 292 286 282 277 273 271 267 273 283 283 274 265 264 265 266 272 271 263 268 270 270 271 269 267 265 263 260 257
293 291 291 290 289 289 288 286 284 285 285 286 288 288 289 289 287 284 279 277 275 275 271 277 283 279 273 268 268 268 266 267 266 268 269 269 269 268 266 263 262 260 257
290 289 288 286 285 285 284 282 279 278 278 279 280 281 282 282 282 282 281 276 275 274 272 274 278 280 276 265 262 267 270 260 263 265 266 266 266 266 265 263 262 260 257
287 286 286 284 282 284 283 282 279 278 279 281 282 281 281 284 284 285 282 275 271 271 273 275 277 279 277 271 266 264 269 269 263 256 258 259 259 257 258 261 261 261 259
285 285 285 285 286 290 295 299 298 289 283 283 286 286 286 287 288 289 290 290 287 282 280 277 279 278 278 272 269 267 269 271 273 238 245 255 246 249 246 241 254 258 258
286 286 286 286 286 290 299 301 300 299 287 284 285 288 291 290 293 288 288 290 288 286 284 282 279 278 279 274 269 269 264 264 266 252 251 264 250 251 247 249 253 254 255
284 286 287 288 289 294 301 301 301 298 287 282 282 282 284 285 286 289 283 280 276 277 277 277 270 270 270 268 260 262 265 264 264 256 242 261 254 249 249 241 251 252 254
284 284 285 287 289 294 298 300 301 291 286 283 282 283 288 287 290 294 294 287 285 281 283 280 277 276 276 276 272 266 258 261 266 257 226 241 251 247 244 243 245 249 251
281 284 286 286 287 288 295 301 302 293 289 288 285 283 290 293 295 298 295 289 289 287 283 281 280 280 280 277 277 268 261 264 268 265 221 220 234 226 248 241 233 238 245
Height
1553 1554 1554 1554 1554 1554 1553 1553 1552 1551 1551 1550 1549 1548 1547 1547 1546 1545 1545 1545 1545 1544 1544 1544 1543 1543 1543 1542 1542 1542 1542 1541 1541 1541 1541 1541 1541 1541 1541 1541 1541 1541 1541
1551 1552 1552 1552 1552 1552 1551 1550 1549 1549 1548 1547 1546 1545 1543 1542 1541 1540 1540 1539 1539 1539 1539 1539 1538 1538 1538 1537 1537 1537 1537 1537 1537 1537 1537 1537 1537 1537 1537 1537 1537 1537 1537
1549 1549 1549 1549 1549 1549 1548 1547 1546 1545 1544 1543 1541 1540 1539 1537 1536 1535 1534 1533 1532 1532 1532 1532 1532 1532 1532 1531 1531 1531 1531 1531 1531 1531 1531 1531 1532 1532 1532 1532 1532 1533 1533
1546 1546 1546 1546 1546 1545 1544 1543 1542 1540 1539 1538 1536 1534 1533 1531 1529 1528 1527 1526 1526 1525 1524 1524 1524 1524 1524 1524 1524 1524 1525 1525 1525 1525 1525 1525 1526 1526 1526 1527 1527 1527 1528
1543 1543 1542 1542 1542 1541 1540 1539 1537 1536 1534 1532 1530 1528 1526 1524 1523 1522 1520 1519 1518 1517 1516 1516 1516 1516 1516 1516 1516 1517 1517 1517 1517 1518 1518 1518 1519 1519 1520 1520 1521 1522 1522
1539 1539 1538 1537 1537 1536 1535 1534 1533 1531 1529 1527 1524 1521 1519 1517 1516 1514 1513 1511 1510 1509 1508 1508 1507 1507 1507 1507 1507 1508 1508 1509 1509 1510 1510 1511 1511 1512 1513 1514 1514 1515 1516
1536 1535 1534 1533 1533 1531 1530 1529 1528 1526 1524 1523 1519 1514 1510 1509 1507 1505 1504 1503 1502 1502 1501 1500 1500 1499 1498 1499 1498 1499 1499 1499 1500 1501 1501 1502 1503 1504 1505 1506 1507 1508 1509
1532 1531 1530 1529 1528 1527 1526 1525 1523 1521 1519 1519 1516 1511 1504 1499 1497 1497 1497 1496 1495 1495 1494 1493 1492 1491 1490 1490 1490 1490 1489 1489 1490 1491 1492 1493 1493 1494 1496 1497 1498 1500 1501
1529 1528 1527 1526 1524 1523 1521 1520 1519 1516 1514 1513 1512 1510 1504 1495 1491 1489 1490 1490 1489 1488 1487 1486 1485 1484 1483 1481 1481 1481 1480 1480 1479 1480 1481 1482 1484 1485 1486 1487 1489 1490 1492
1526 1525 1523 1522 1520 1519 1517 1515 1514 1512 1509 1506 1506 1504 1501 1496 1491 1481 1479 1481 1482 1482 1481 1479 1478 1476 1475 1473 1472 1471 1471 1470 1469 1469 1469 1470 1472 1474 1475 1477 1478 1480 1482
1523 1521 1519 1518 1516 1514 1512 1510 1508 1506 1504 1501 1499 1497 1494 1491 1488 1482 1472 1470 1471 1471 1472 1471 1469 1468 1467 1465 1463 1462 1462 1461 1460 1459 1459 1459 1460 1462 1464 1466 1467 1469 1471
1519 1518 1516 1514 1511 1509 1507 1504 1502 1499 1497 1494 1492 1489 1487 1484 1481 1477 1469 1463 1461 1461 1462 1462 1461 1460 1458 1457 1455 1454 1453 1451 1450 1450 1449 1448 1448 1449 1451 1453 1455 1458 1460
1515 1513 1511 1508 1506 1503 1501 1498 1495 1492 1490 1487 1484 1482 1479 1477 1475 1471 1466 1458 1453 1450 1451 1451 1451 1451 1450 1448 1446 1445 1443 1442 1441 1440 1439 1438 1438 1438 1439 1440 1443 1445 1448
1510 1508 1505 1503 1500 1497 1494 1491 1488 1485 1482 1479 1477 1474 1471 1469 1467 1465 1461 1456 1446 1440 1439 1439 1440 1441 1441 1439 1437 1436 1434 1433 1432 1430 1429 1429 1428 1427 1428 1428 1430 1432 1435
1505 1502 1499 1496 1493 1490 1487 1484 1480 1477 1475 1472 1469 1466 1463 1461 1459 1457 1454 1451 1446 1435 1426 1428 1430 1431 1431 1430 1428 1426 1424 1423 1422 1421 1420 1419 1418 1417 1417 1417 1418 1420 1423
1499 1496 1493 1490 1486 1483 1480 1476 1473 1470 1467 1464 1461 1458 1455 1452 1450 1448 1445 1443 1440 1433 1420 1416 1419 1421 1420 1419 1418 1417 1414 1413 1412 1411 1410 1409 1408 1407 1407 1407 1408 1409 1411
1494 1490 1487 1483 1480 1476 1473 1469 1465 1462 1459 1455 1453 1449 1446 1444 1440 1438 1435 1433 1430 1427 1417 1407 1410 1410 1410 1409 1408 1406 1405 1403 1402 1401 1400 1399 1398 1397 1397 1397 1397 1399 1400
1488 1484 1480 1476 1473 1469 1465 1462 1458 1454 1451 1447 1444 1441 1437 1434 1431 1428 1425 1422 1420 1417 1412 1402 1399 1400 1399 1399 1397 1396 1394 1393 1391 1390 1390 1389 1388 1387 1387 1387 1387 1388 1390
1481 1478 1474 1470 1466 1462 1458 1454 1450 1446 1442 1439 1435 1432 1428 1425 1421 1418 1416 1412 1410 1407 1404 1398 1391 1391 1389 1389 1387 1385 1383 1382 1381 1380 1379 1378 1377 1377 1377 1377 1377 1378 1380
1475 1471 1467 1463 1459 1455 1450 1446 1442 1438 1434 1430 1427 1423 1420 1417 1412 1409 1406 1403 1400 1397 1394 1390 1384 1381 1380 1379 1378 1375 1372 1371 1370 1370 1369 1368 1368 1367 1367 1367 1368 1369 1370
1469 1464 1460 1456 1452 1448 1443 1439 1435 1430 1426 1422 1418 1415 1411 1408 1404 1401 1398 1394 1392 1388 1385 1381 1377 1374 1371 1370 1369 1367 1364 1362 1360 1360 1359 1358 1358 1357 1357 1358 1359 1359 1360
1462 1458 1453 1449 1445 1441 1437 1433 1428 1423 1418 1414 1409 1406 1403 1399 1396 1393 1390 1387 1385 1381 1377 1373 1369 1366 1363 1362 1361 1359 1357 1354 1351 1351 1351 1348 1349 1348 1348 1349 1350 1351 1351
1455 1450 1446 1442 1437 1433 1429 1425 1421 1416 1411 1406 1402 1398 1394 1391 1388 1384 1380 1377 1375 1372 1370 1366 1361 1358 1356 1354 1353 1350 1348 1346 1344 1343 1343 1340 1340 1339 1340 1341 1342 1343 1343
1448 1443 1439 1434 1430 1426 1422 1418 1413 1408 1403 1399 1395 1391 1387 1383 1380 1376 1372 1367 1364 1362 1360 1357 1353 1349 1348 1346 1344 1342 1340 1338 1336 1335 1336 1333 1332 1332 1333 1333 1334 1335 1336
1441 1436 1432 1427 1422 1418 1415 1410 1406 1401 1395 1391 1387 1384 1380 1376 1372 1369 1365 1359 1355 1352 1350 1347 1344 1341 1339 1337 1336 1334 1331 1330 1327 1326 1327 1326 1324 1325 1325 1325 1327 1328 1329
1433 1429 1424 1420 1415 1410 1407 1403 1399 1394 1388 1383 1379 1375 1372 1368 1364 1361 1357 1352 1347 1343 1340 1337 1334 1332 1330 1328 1327 1326 1324 1323 1320 1318 1318 1319 1318 1319 1318 1317 1319 1321 1322